DLH4022 EDDF-KEWR

Flight info

Callsign DLH4022
Flight time 8h 4m
Altitude 36000
Route OBOKA3M/25C OBOKA Z28 DIBIR DCT BUDIP DCT RAVLO Y70 OTBED L60 PENIL/N0465F380 M144 BAGSO DCT ADBUS DCT DOGAL/M082F380 NATC ELSIR/N0472F400 N408A HULTN DCT CBIRD DCT HANAA FLOSI4
Aircraft A346/H-SDE2E3FGHIJ3J4J5M1P2RWXYZ/LB1D1

Departure

Time 2026-05-07 10:06
Airport Frankfurt Main Airport (EDDF)

Arrival

Time 2026-05-07 18:10
Airport Newark Liberty International Airport (KEWR)
Time Latitude Longitude Altitude Speed Heading
2026-05-07 09:26 50.04625 8.55953 354 ft 0 kts 339°
2026-05-07 09:50 50.04607 8.55964 362 ft 0 kts 339°
2026-05-07 09:51 50.04583 8.55978 358 ft 0 kts 339°
2026-05-07 09:51 50.04568 8.55996 362 ft 0 kts 302°
2026-05-07 09:51 50.04564 8.56023 363 ft 0 kts 262°
2026-05-07 09:51 50.04569 8.56044 359 ft 0 kts 243°
2026-05-07 09:56 50.04554 8.56003 363 ft 9 kts 237°
2026-05-07 09:56 50.04501 8.55945 361 ft 11 kts 199°
2026-05-07 09:56 50.04421 8.55918 354 ft 13 kts 185°
2026-05-07 09:57 50.04341 8.55926 359 ft 9 kts 163°
2026-05-07 09:57 50.04278 8.55973 362 ft 15 kts 141°
2026-05-07 09:57 50.04187 8.56058 361 ft 16 kts 158°
2026-05-07 09:57 50.04112 8.56110 359 ft 9 kts 134°
2026-05-07 09:58 50.04114 8.56221 360 ft 12 kts 70°
2026-05-07 09:58 50.04146 8.56356 362 ft 14 kts 70°
2026-05-07 09:58 50.04169 8.56453 363 ft 15 kts 70°
2026-05-07 09:58 50.04207 8.56611 355 ft 16 kts 69°
2026-05-07 09:59 50.04248 8.56780 361 ft 17 kts 69°
2026-05-07 09:59 50.04293 8.56965 358 ft 20 kts 69°
2026-05-07 09:59 50.04343 8.57172 358 ft 22 kts 69°
2026-05-07 09:59 50.04394 8.57397 361 ft 23 kts 71°
2026-05-07 10:00 50.04448 8.57636 354 ft 24 kts 71°
2026-05-07 10:00 50.04512 8.57887 362 ft 25 kts 67°
2026-05-07 10:00 50.04568 8.58117 358 ft 21 kts 70°
2026-05-07 10:00 50.04619 8.58338 355 ft 18 kts 69°
2026-05-07 10:01 50.04648 8.58460 361 ft 9 kts 70°
2026-05-07 10:01 50.04650 8.58537 361 ft 6 kts 115°
2026-05-07 10:01 50.04631 8.58566 361 ft 0 kts 153°
2026-05-07 10:01 50.04627 8.58568 358 ft 1 kts 159°
2026-05-07 10:02 50.04615 8.58576 355 ft 0 kts 159°
2026-05-07 10:03 50.04588 8.58592 360 ft 7 kts 159°
2026-05-07 10:03 50.04533 8.58625 360 ft 9 kts 160°
2026-05-07 10:03 50.04505 8.58627 360 ft 3 kts 202°
2026-05-07 10:04 50.04493 8.58607 362 ft 0 kts 246°
2026-05-07 10:04 50.04492 8.58601 361 ft 4 kts 248°
2026-05-07 10:04 50.04424 8.58332 356 ft 56 kts 249°
2026-05-07 10:05 50.04225 8.57493 361 ft 109 kts 250°
2026-05-07 10:05 50.03916 8.56195 359 ft 154 kts 249°
2026-05-07 10:05 50.03492 8.54463 377 ft 188 kts 251°
2026-05-07 10:05 50.03028 8.52547 797 ft 194 kts 251°
2026-05-07 10:06 50.02508 8.50612 1436 ft 196 kts 236°
2026-05-07 10:06 50.01416 8.49340 2030 ft 201 kts 201°
2026-05-07 10:06 50.00066 8.48711 2522 ft 207 kts 197°
2026-05-07 10:06 49.98652 8.48128 2986 ft 213 kts 196°
2026-05-07 10:07 49.97222 8.47532 3543 ft 213 kts 197°
2026-05-07 10:07 49.95787 8.46917 4085 ft 215 kts 197°
2026-05-07 10:07 49.94322 8.46256 4411 ft 230 kts 198°
2026-05-07 10:07 49.92724 8.45512 4801 ft 244 kts 200°
2026-05-07 10:08 49.91250 8.44209 5179 ft 252 kts 228°
2026-05-07 10:08 49.90226 8.42010 5873 ft 251 kts 242°
2026-05-07 10:08 49.89349 8.39660 6614 ft 252 kts 243°
2026-05-07 10:08 49.88679 8.37149 7288 ft 252 kts 261°
2026-05-07 10:09 49.88575 8.34425 7868 ft 259 kts 275°
2026-05-07 10:09 49.88739 8.31563 8368 ft 270 kts 277°
2026-05-07 10:09 49.88953 8.28643 9140 ft 271 kts 282°
2026-05-07 10:09 49.89522 8.25901 9972 ft 271 kts 296°
2026-05-07 10:10 49.90531 8.23390 10626 ft 277 kts 306°
2026-05-07 10:10 49.91714 8.20909 10952 ft 293 kts 307°
2026-05-07 10:10 49.92998 8.18325 11259 ft 309 kts 309°
2026-05-07 10:10 49.94459 8.15762 11555 ft 325 kts 314°
2026-05-07 10:11 49.96147 8.13276 11853 ft 342 kts 319°
2026-05-07 10:11 49.97964 8.10835 12168 ft 358 kts 319°
2026-05-07 10:11 49.99898 8.08272 12584 ft 369 kts 320°
2026-05-07 10:11 50.01869 8.05655 13249 ft 374 kts 320°
2026-05-07 10:12 50.03849 8.03016 14020 ft 376 kts 320°
2026-05-07 10:12 50.05847 8.00345 14632 ft 381 kts 320°
2026-05-07 10:12 50.07858 7.97651 15249 ft 384 kts 319°
2026-05-07 10:12 50.09892 7.94921 15924 ft 386 kts 319°
2026-05-07 10:13 50.11932 7.92177 16570 ft 389 kts 319°
2026-05-07 10:13 50.13999 7.89393 17140 ft 395 kts 319°
2026-05-07 10:13 50.16095 7.86562 17718 ft 399 kts 319°
2026-05-07 10:13 50.18214 7.83695 18351 ft 402 kts 319°
2026-05-07 10:14 50.20351 7.80805 18819 ft 407 kts 319°
2026-05-07 10:14 50.22509 7.77890 19333 ft 411 kts 320°
2026-05-07 10:14 50.24792 7.75167 19934 ft 412 kts 326°
2026-05-07 10:14 50.27235 7.72814 20516 ft 413 kts 331°
2026-05-07 10:15 50.29792 7.70850 21049 ft 417 kts 335°
2026-05-07 10:15 50.32466 7.69007 21573 ft 420 kts 336°
2026-05-07 10:15 50.35163 7.67189 22072 ft 423 kts 336°
2026-05-07 10:15 50.37889 7.65343 22536 ft 428 kts 336°
2026-05-07 10:16 50.40647 7.63460 23064 ft 431 kts 336°
2026-05-07 10:16 50.43399 7.61570 23602 ft 433 kts 336°
2026-05-07 10:16 50.46152 7.59674 24011 ft 436 kts 336°
2026-05-07 10:16 50.48951 7.57742 24407 ft 439 kts 336°
2026-05-07 10:17 50.51779 7.55787 24802 ft 443 kts 335°
2026-05-07 10:17 50.54561 7.53705 25241 ft 444 kts 333°
2026-05-07 10:17 50.57296 7.51372 25711 ft 446 kts 330°
2026-05-07 10:17 50.59977 7.48792 26126 ft 448 kts 327°
2026-05-07 10:18 50.62656 7.46059 26498 ft 452 kts 327°
2026-05-07 10:18 50.65304 7.43320 26843 ft 456 kts 326°
2026-05-07 10:18 50.68009 7.40522 27214 ft 459 kts 326°
2026-05-07 10:18 50.70687 7.37719 27614 ft 461 kts 324°
2026-05-07 10:19 50.73266 7.34493 28069 ft 462 kts 318°
2026-05-07 10:19 50.75522 7.30980 28642 ft 460 kts 312°
2026-05-07 10:19 50.77550 7.27067 29237 ft 458 kts 307°
2026-05-07 10:19 50.79410 7.22981 29875 ft 455 kts 305°
2026-05-07 10:20 50.81222 7.18880 30374 ft 454 kts 305°
2026-05-07 10:20 50.83028 7.14776 30781 ft 454 kts 305°
2026-05-07 10:20 50.84843 7.10662 31147 ft 455 kts 305°
2026-05-07 10:20 50.86662 7.06549 31552 ft 455 kts 305°
2026-05-07 10:21 50.88460 7.02487 31975 ft 454 kts 305°
2026-05-07 10:21 50.90280 6.98378 32430 ft 453 kts 305°
2026-05-07 10:21 50.92093 6.94289 32888 ft 451 kts 305°
2026-05-07 10:21 50.93900 6.90205 33367 ft 449 kts 305°
2026-05-07 10:22 50.95702 6.86126 33830 ft 448 kts 305°
2026-05-07 10:22 50.97495 6.82058 34205 ft 447 kts 305°
2026-05-07 10:22 50.99260 6.78048 34471 ft 448 kts 305°
2026-05-07 10:22 51.01051 6.73969 34710 ft 450 kts 304°
2026-05-07 10:23 51.02849 6.69868 34944 ft 451 kts 304°
2026-05-07 10:23 51.04653 6.65743 35166 ft 453 kts 304°
2026-05-07 10:23 51.06433 6.61664 35376 ft 455 kts 304°
2026-05-07 10:23 51.08256 6.57478 35550 ft 457 kts 304°
2026-05-07 10:24 51.10075 6.53302 35705 ft 460 kts 304°
2026-05-07 10:24 51.11910 6.49090 35896 ft 462 kts 304°
2026-05-07 10:24 51.13743 6.44872 36048 ft 463 kts 304°
2026-05-07 10:25 51.17392 6.36445 36045 ft 464 kts 304°
2026-05-07 10:25 51.21056 6.27953 36046 ft 463 kts 304°
2026-05-07 10:26 51.24692 6.19490 36049 ft 463 kts 304°
2026-05-07 10:26 51.28347 6.10946 36048 ft 464 kts 303°
2026-05-07 10:27 51.31871 6.02349 36048 ft 464 kts 302°
2026-05-07 10:27 51.35407 5.93674 36043 ft 464 kts 303°
2026-05-07 10:28 51.39295 5.85400 36040 ft 465 kts 309°
2026-05-07 10:28 51.43676 5.77716 36049 ft 465 kts 313°
2026-05-07 10:29 51.47865 5.70682 36049 ft 466 kts 313°
2026-05-07 10:29 51.52343 5.63129 36049 ft 466 kts 312°
2026-05-07 10:30 51.59012 5.51810 36048 ft 466 kts 312°
2026-05-07 10:30 51.63469 5.44210 36049 ft 466 kts 312°
2026-05-07 10:31 51.67929 5.36579 36055 ft 466 kts 312°
2026-05-07 10:31 51.72354 5.28989 36054 ft 466 kts 312°
2026-05-07 10:32 51.76798 5.21340 36075 ft 466 kts 312°
2026-05-07 10:32 51.81198 5.13741 36076 ft 466 kts 312°
2026-05-07 10:33 51.85641 5.06046 36061 ft 466 kts 311°
2026-05-07 10:33 51.90064 4.98361 36072 ft 466 kts 311°
2026-05-07 10:34 51.94453 4.90712 36081 ft 465 kts 311°
2026-05-07 10:34 51.98883 4.82968 36060 ft 466 kts 311°
2026-05-07 10:35 52.03301 4.75221 36081 ft 466 kts 311°
2026-05-07 10:35 52.07713 4.67460 36062 ft 466 kts 311°
2026-05-07 10:36 52.12093 4.59729 36058 ft 467 kts 311°
2026-05-07 10:36 52.16510 4.51915 36081 ft 466 kts 311°
2026-05-07 10:37 52.20901 4.44113 36072 ft 467 kts 311°
2026-05-07 10:37 52.25273 4.36319 36072 ft 467 kts 311°
2026-05-07 10:38 52.29675 4.28458 36081 ft 468 kts 311°
2026-05-07 10:38 52.34067 4.20593 36084 ft 467 kts 311°
2026-05-07 10:39 52.38450 4.12700 36085 ft 467 kts 311°
2026-05-07 10:39 52.42827 4.04810 36087 ft 467 kts 311°
2026-05-07 10:40 52.47191 3.96908 36095 ft 467 kts 311°
2026-05-07 10:40 52.51549 3.88979 36094 ft 469 kts 312°
2026-05-07 10:41 52.55204 3.82332 36094 ft 469 kts 312°
2026-05-07 10:41 52.60300 3.73029 36096 ft 470 kts 312°
2026-05-07 10:42 52.63938 3.66363 36099 ft 470 kts 312°
2026-05-07 10:42 52.69020 3.57018 36098 ft 469 kts 311°
2026-05-07 10:43 52.72641 3.50331 36094 ft 470 kts 312°
2026-05-07 10:43 52.77012 3.42237 36095 ft 471 kts 312°
2026-05-07 10:44 52.81373 3.34142 36098 ft 471 kts 312°
2026-05-07 10:44 52.85719 3.25979 36096 ft 471 kts 309°
2026-05-07 10:45 52.89448 3.17112 36103 ft 472 kts 300°
2026-05-07 10:45 52.92277 3.07285 36104 ft 473 kts 291°
2026-05-07 10:46 52.94124 2.96804 36110 ft 474 kts 283°
2026-05-07 10:46 52.95518 2.86075 36108 ft 474 kts 282°
2026-05-07 10:47 52.96885 2.75413 36109 ft 474 kts 282°
2026-05-07 10:47 52.98267 2.64673 36110 ft 474 kts 282°
2026-05-07 10:48 52.99635 2.54012 36109 ft 474 kts 282°
2026-05-07 10:48 53.01007 2.43259 36110 ft 474 kts 282°
2026-05-07 10:49 53.02360 2.32562 36109 ft 474 kts 282°
2026-05-07 10:49 53.03708 2.21811 36109 ft 474 kts 282°
2026-05-07 10:50 53.05044 2.11066 36111 ft 474 kts 282°
2026-05-07 10:50 53.06368 2.00374 36106 ft 474 kts 282°
2026-05-07 10:51 53.07691 1.89585 36110 ft 474 kts 281°
2026-05-07 10:51 53.08992 1.78856 36109 ft 474 kts 281°
2026-05-07 10:52 53.10291 1.68057 36109 ft 474 kts 281°
2026-05-07 10:52 53.11570 1.57334 36106 ft 474 kts 281°
2026-05-07 10:53 53.12849 1.46532 36107 ft 474 kts 281°
2026-05-07 10:53 53.14119 1.35707 36104 ft 474 kts 281°
2026-05-07 10:54 53.15370 1.24959 36107 ft 474 kts 281°
2026-05-07 10:54 53.16616 1.14155 36101 ft 474 kts 281°
2026-05-07 10:55 53.17858 1.03296 36100 ft 474 kts 281°
2026-05-07 10:55 53.19080 0.92529 36097 ft 474 kts 280°
2026-05-07 10:56 53.20301 0.81663 36091 ft 474 kts 280°
2026-05-07 10:56 53.21502 0.70873 36090 ft 474 kts 280°
2026-05-07 10:57 53.22702 0.59996 36084 ft 474 kts 280°
2026-05-07 10:57 53.23886 0.49190 36084 ft 475 kts 280°
2026-05-07 10:58 53.25070 0.38306 36076 ft 475 kts 280°
2026-05-07 10:58 53.26245 0.27422 36073 ft 473 kts 279°
2026-05-07 10:59 53.27396 0.16623 36067 ft 475 kts 279°
2026-05-07 10:59 53.28541 0.05750 36068 ft 474 kts 279°
2026-05-07 11:00 53.29685 -0.05130 36075 ft 474 kts 279°
2026-05-07 11:00 53.30813 -0.15976 36078 ft 474 kts 279°
2026-05-07 11:01 53.31922 -0.26820 36076 ft 473 kts 279°
2026-05-07 11:01 53.33031 -0.37727 36073 ft 474 kts 279°
2026-05-07 11:02 53.34132 -0.48638 36072 ft 474 kts 279°
2026-05-07 11:02 53.35213 -0.59465 36074 ft 473 kts 278°
2026-05-07 11:03 53.36300 -0.70431 36077 ft 474 kts 278°
2026-05-07 11:03 53.37372 -0.81358 36077 ft 474 kts 278°
2026-05-07 11:04 53.38424 -0.92209 36079 ft 473 kts 278°
2026-05-07 11:04 53.39474 -1.03140 36079 ft 474 kts 278°
2026-05-07 11:05 53.40513 -1.14035 36074 ft 473 kts 278°
2026-05-07 11:05 53.41542 -1.24971 36075 ft 473 kts 278°
2026-05-07 11:06 53.42565 -1.35943 36073 ft 474 kts 278°
2026-05-07 11:06 53.43572 -1.46863 36070 ft 473 kts 278°
2026-05-07 11:07 53.44566 -1.57745 36073 ft 474 kts 277°
2026-05-07 11:07 53.45557 -1.68706 36066 ft 473 kts 277°
2026-05-07 11:08 53.46534 -1.79653 36066 ft 473 kts 277°
2026-05-07 11:08 53.47500 -1.90545 36060 ft 473 kts 277°
2026-05-07 11:09 53.48463 -2.01548 36058 ft 473 kts 277°
2026-05-07 11:09 53.49414 -2.12542 36057 ft 474 kts 277°
2026-05-07 11:10 53.50346 -2.23476 36060 ft 472 kts 277°
2026-05-07 11:10 53.51281 -2.34434 36053 ft 473 kts 276°
2026-05-07 11:11 53.52198 -2.45386 36049 ft 473 kts 276°
2026-05-07 11:11 53.53109 -2.56404 36045 ft 473 kts 276°
2026-05-07 11:12 53.54009 -2.67365 36052 ft 474 kts 276°
2026-05-07 11:12 53.54898 -2.78437 36039 ft 473 kts 276°
2026-05-07 11:13 53.55778 -2.89443 36047 ft 473 kts 276°
2026-05-07 11:13 53.56644 -3.00465 36045 ft 473 kts 276°
2026-05-07 11:14 53.57498 -3.11442 36059 ft 473 kts 276°
2026-05-07 11:14 53.58343 -3.22451 36045 ft 472 kts 276°
2026-05-07 11:15 53.59174 -3.33400 36038 ft 472 kts 276°
2026-05-07 11:15 53.59997 -3.44381 36036 ft 472 kts 276°
2026-05-07 11:16 53.60808 -3.55378 36026 ft 472 kts 275°
2026-05-07 11:16 53.61588 -3.66286 36020 ft 472 kts 274°
2026-05-07 11:17 53.62090 -3.77385 36012 ft 471 kts 272°
2026-05-07 11:17 53.62528 -3.88378 36012 ft 471 kts 272°
2026-05-07 11:18 53.62970 -3.99446 36009 ft 472 kts 272°
2026-05-07 11:18 53.63404 -4.10474 36009 ft 472 kts 272°
2026-05-07 11:19 53.63832 -4.21449 36010 ft 471 kts 271°
2026-05-07 11:19 53.64242 -4.32510 36009 ft 471 kts 271°
2026-05-07 11:20 53.64644 -4.43489 36008 ft 471 kts 271°
2026-05-07 11:20 53.65042 -4.54536 36008 ft 471 kts 271°
2026-05-07 11:21 53.65426 -4.65571 36005 ft 469 kts 271°
2026-05-07 11:21 53.65795 -4.76580 36005 ft 468 kts 271°
2026-05-07 11:22 53.66153 -4.87513 35995 ft 468 kts 271°
2026-05-07 11:22 53.66512 -4.98520 35995 ft 468 kts 271°
2026-05-07 11:23 53.66854 -5.09455 35992 ft 468 kts 271°
2026-05-07 11:23 53.67188 -5.20446 35998 ft 468 kts 270°
2026-05-07 11:24 53.67506 -5.31461 35989 ft 468 kts 270°
2026-05-07 11:24 53.67816 -5.42411 35985 ft 468 kts 271°
2026-05-07 11:25 53.68561 -5.53382 35989 ft 470 kts 277°
2026-05-07 11:25 53.69911 -5.64167 35982 ft 471 kts 281°
2026-05-07 11:26 53.71386 -5.74992 35981 ft 471 kts 281°
2026-05-07 11:26 53.72844 -5.85814 35973 ft 471 kts 280°
2026-05-07 11:27 53.74281 -5.96600 35973 ft 471 kts 280°
2026-05-07 11:27 53.75710 -6.07435 35962 ft 471 kts 280°
2026-05-07 11:28 53.77120 -6.18212 35965 ft 471 kts 280°
2026-05-07 11:28 53.78530 -6.29063 35968 ft 471 kts 280°
2026-05-07 11:29 53.79696 -6.38099 35958 ft 471 kts 279°
2026-05-07 11:29 53.81311 -6.50723 35954 ft 471 kts 279°
2026-05-07 11:30 53.82689 -6.61573 35957 ft 469 kts 279°
2026-05-07 11:30 53.83831 -6.70639 35947 ft 469 kts 279°
2026-05-07 11:31 53.85176 -6.81410 35956 ft 469 kts 279°
2026-05-07 11:31 53.86524 -6.92261 35940 ft 469 kts 279°
2026-05-07 11:32 53.88513 -7.08455 35940 ft 469 kts 279°
2026-05-07 11:33 53.89834 -7.19313 35931 ft 469 kts 278°
2026-05-07 11:33 53.91146 -7.30184 35932 ft 469 kts 278°
2026-05-07 11:34 53.92441 -7.41001 35932 ft 468 kts 278°
2026-05-07 11:34 53.93728 -7.51841 35927 ft 467 kts 278°
2026-05-07 11:35 53.94999 -7.62634 35922 ft 467 kts 278°
2026-05-07 11:35 53.96268 -7.73504 35921 ft 467 kts 278°
2026-05-07 11:36 53.97521 -7.84323 35913 ft 467 kts 278°
2026-05-07 11:36 53.98770 -7.95194 35929 ft 466 kts 278°
2026-05-07 11:37 54.00002 -8.05994 35910 ft 465 kts 277°
2026-05-07 11:37 54.01223 -8.16820 35909 ft 465 kts 277°
2026-05-07 11:38 54.02435 -8.27657 35903 ft 465 kts 277°
2026-05-07 11:38 54.03636 -8.38476 35926 ft 464 kts 277°
2026-05-07 11:38 54.04234 -8.43910 36066 ft 464 kts 277°
2026-05-07 11:39 54.04612 -8.49336 36196 ft 460 kts 270°
2026-05-07 11:39 54.04745 -8.54795 36326 ft 459 kts 269°
2026-05-07 11:39 54.04828 -8.60226 36458 ft 459 kts 268°
2026-05-07 11:39 54.04905 -8.65659 36585 ft 459 kts 268°
2026-05-07 11:40 54.04986 -8.71026 36722 ft 458 kts 268°
2026-05-07 11:40 54.05071 -8.76472 36857 ft 458 kts 269°
2026-05-07 11:40 54.05159 -8.81924 36991 ft 458 kts 269°
2026-05-07 11:40 54.05248 -8.87367 37130 ft 458 kts 269°
2026-05-07 11:41 54.05336 -8.92807 37256 ft 458 kts 269°
2026-05-07 11:41 54.05422 -8.98183 37394 ft 458 kts 269°
2026-05-07 11:41 54.05508 -9.03623 37545 ft 458 kts 269°
2026-05-07 11:41 54.05591 -9.09044 37680 ft 457 kts 269°
2026-05-07 11:42 54.05671 -9.14415 37819 ft 457 kts 269°
2026-05-07 11:42 54.05825 -9.25267 37893 ft 457 kts 269°
2026-05-07 11:43 54.05970 -9.36130 37906 ft 457 kts 268°
2026-05-07 11:43 54.06104 -9.46907 37903 ft 457 kts 268°
2026-05-07 11:44 54.06231 -9.57772 37924 ft 456 kts 268°
2026-05-07 11:44 54.06346 -9.68578 37921 ft 455 kts 268°
2026-05-07 11:45 54.06450 -9.79384 37914 ft 455 kts 268°
2026-05-07 11:45 54.06545 -9.90122 37917 ft 455 kts 268°
2026-05-07 11:46 54.06631 -10.00946 37930 ft 455 kts 268°
2026-05-07 11:46 54.06706 -10.11675 37923 ft 454 kts 268°
2026-05-07 11:47 54.06774 -10.22462 37933 ft 452 kts 268°
2026-05-07 11:47 54.06830 -10.33127 37919 ft 451 kts 267°
2026-05-07 11:48 54.06876 -10.43829 37911 ft 450 kts 267°
2026-05-07 11:48 54.06913 -10.54454 37913 ft 450 kts 267°
2026-05-07 11:49 54.06940 -10.65133 37923 ft 450 kts 267°
2026-05-07 11:49 54.06959 -10.75796 37912 ft 449 kts 267°
2026-05-07 11:50 54.06968 -10.86440 37911 ft 449 kts 267°
2026-05-07 11:50 54.06968 -10.97057 37910 ft 449 kts 267°
2026-05-07 11:51 54.06958 -11.07724 37911 ft 449 kts 267°
2026-05-07 11:51 54.06939 -11.18336 37911 ft 448 kts 267°
2026-05-07 11:52 54.06910 -11.29000 37911 ft 448 kts 267°
2026-05-07 11:52 54.06873 -11.39608 37911 ft 448 kts 266°
2026-05-07 11:53 54.06825 -11.50271 37914 ft 448 kts 266°
2026-05-07 11:53 54.06769 -11.60859 37914 ft 448 kts 266°
2026-05-07 11:54 54.06701 -11.71515 37918 ft 448 kts 266°
2026-05-07 11:54 54.06626 -11.82094 37914 ft 448 kts 266°
2026-05-07 11:55 54.06542 -11.92731 37911 ft 448 kts 266°
2026-05-07 11:55 54.06449 -12.03315 37911 ft 448 kts 266°
2026-05-07 11:56 54.06345 -12.13962 37911 ft 448 kts 266°
2026-05-07 11:56 54.06232 -12.24611 37920 ft 448 kts 266°
2026-05-07 11:57 54.06109 -12.35192 37915 ft 448 kts 266°
2026-05-07 11:57 54.05978 -12.45845 37914 ft 448 kts 266°
2026-05-07 11:58 54.05838 -12.56446 37916 ft 448 kts 266°
2026-05-07 11:58 54.05688 -12.67088 37916 ft 448 kts 266°
2026-05-07 11:59 54.05528 -12.77671 37921 ft 448 kts 266°
2026-05-07 11:59 54.05357 -12.88339 37917 ft 449 kts 266°
2026-05-07 12:00 54.05181 -12.98909 37942 ft 449 kts 266°
2026-05-07 12:00 54.04993 -13.09565 37924 ft 449 kts 266°
2026-05-07 12:01 54.04795 -13.20229 37923 ft 449 kts 266°
2026-05-07 12:01 54.04587 -13.30885 37922 ft 449 kts 266°
2026-05-07 12:02 54.04370 -13.41475 37922 ft 450 kts 266°
2026-05-07 12:02 54.04145 -13.52144 37923 ft 450 kts 266°
2026-05-07 12:03 54.03910 -13.62831 37921 ft 450 kts 266°
2026-05-07 12:03 54.03664 -13.73516 37921 ft 450 kts 266°
2026-05-07 12:04 54.03410 -13.84126 37946 ft 450 kts 266°
2026-05-07 12:04 54.03146 -13.94806 37935 ft 449 kts 266°
2026-05-07 12:05 54.02875 -14.05367 37937 ft 449 kts 266°
2026-05-07 12:05 54.02593 -14.15992 37921 ft 449 kts 266°
2026-05-07 12:06 54.02300 -14.26648 37933 ft 449 kts 265°
2026-05-07 12:06 54.02001 -14.37210 37933 ft 449 kts 265°
2026-05-07 12:07 54.01690 -14.47851 37939 ft 449 kts 265°
2026-05-07 12:07 54.01368 -14.58499 37934 ft 449 kts 265°
2026-05-07 12:08 54.01039 -14.69079 37936 ft 449 kts 265°
2026-05-07 12:08 54.00697 -14.79728 37946 ft 449 kts 265°
2026-05-07 12:09 54.00346 -14.90305 37959 ft 449 kts 265°
2026-05-07 12:09 54.00085 -15.00972 37943 ft 451 kts 268°
2026-05-07 12:10 54.00256 -15.11709 37949 ft 451 kts 270°
2026-05-07 12:10 54.00468 -15.22339 37948 ft 451 kts 270°
2026-05-07 12:11 54.00669 -15.33026 37953 ft 451 kts 270°
2026-05-07 12:11 54.00857 -15.43669 37959 ft 451 kts 270°
2026-05-07 12:12 54.01035 -15.54381 37965 ft 451 kts 270°
2026-05-07 12:12 54.01204 -15.65015 37962 ft 451 kts 270°
2026-05-07 12:13 54.01364 -15.75726 37961 ft 451 kts 270°
2026-05-07 12:13 54.01514 -15.86341 37966 ft 451 kts 270°
2026-05-07 12:14 54.01654 -15.97047 37965 ft 451 kts 270°
2026-05-07 12:14 54.01783 -16.07669 37970 ft 451 kts 270°
2026-05-07 12:15 54.01905 -16.18367 37970 ft 451 kts 270°
2026-05-07 12:15 54.02018 -16.29063 37971 ft 451 kts 270°
2026-05-07 12:16 54.02121 -16.39685 37973 ft 451 kts 269°
2026-05-07 12:16 54.02214 -16.50383 37977 ft 451 kts 269°
2026-05-07 12:17 54.02298 -16.61074 37977 ft 451 kts 269°
2026-05-07 12:17 54.02372 -16.71695 37983 ft 451 kts 269°
2026-05-07 12:18 54.02436 -16.82383 37982 ft 451 kts 269°
2026-05-07 12:18 54.02483 -16.91273 37985 ft 451 kts 269°
2026-05-07 12:19 54.02530 -17.01959 37986 ft 451 kts 269°
2026-05-07 12:19 54.02567 -17.12637 37992 ft 450 kts 269°
2026-05-07 12:20 54.02594 -17.23250 38013 ft 450 kts 269°
2026-05-07 12:20 54.02614 -17.33946 37998 ft 450 kts 269°
2026-05-07 12:21 54.02625 -17.44626 37996 ft 450 kts 269°
2026-05-07 12:21 54.02625 -17.55232 38001 ft 450 kts 269°
2026-05-07 12:22 54.02616 -17.65936 38000 ft 450 kts 269°
2026-05-07 12:22 54.02595 -17.76636 38007 ft 450 kts 269°
2026-05-07 12:23 54.02568 -17.87267 38005 ft 450 kts 269°
2026-05-07 12:23 54.02531 -17.97954 38016 ft 450 kts 269°
2026-05-07 12:24 54.02484 -18.08584 38014 ft 450 kts 269°
2026-05-07 12:24 54.02428 -18.19261 38016 ft 450 kts 269°
2026-05-07 12:25 54.02360 -18.29933 38019 ft 450 kts 269°
2026-05-07 12:25 54.02285 -18.40559 38019 ft 450 kts 269°
2026-05-07 12:26 54.02201 -18.51281 38028 ft 450 kts 269°
2026-05-07 12:26 54.02107 -18.61904 38026 ft 450 kts 269°
2026-05-07 12:27 54.02003 -18.72583 38027 ft 450 kts 269°
2026-05-07 12:27 54.01887 -18.83261 38025 ft 451 kts 269°
2026-05-07 12:28 54.01765 -18.93962 38032 ft 451 kts 269°
2026-05-07 12:28 54.01633 -19.04583 38040 ft 452 kts 269°
2026-05-07 12:29 54.01491 -19.15314 38041 ft 452 kts 269°
2026-05-07 12:29 54.01340 -19.25958 38040 ft 452 kts 268°
2026-05-07 12:30 54.01176 -19.36688 38045 ft 452 kts 269°
2026-05-07 12:30 54.01007 -19.47342 38049 ft 452 kts 269°
2026-05-07 12:31 54.00826 -19.58072 38050 ft 452 kts 268°
2026-05-07 12:31 54.00636 -19.68787 38049 ft 452 kts 268°
2026-05-07 12:32 54.00435 -19.79422 38055 ft 452 kts 268°
2026-05-07 12:32 54.00220 -19.90150 38048 ft 453 kts 268°
2026-05-07 12:33 53.99673 -20.06235 38058 ft 453 kts 265°
2026-05-07 12:33 53.99069 -20.16874 38059 ft 453 kts 265°
2026-05-07 12:34 53.98446 -20.27557 38064 ft 453 kts 265°
2026-05-07 12:34 53.97816 -20.38177 38065 ft 453 kts 265°
2026-05-07 12:35 53.97171 -20.48858 38064 ft 454 kts 265°
2026-05-07 12:35 53.96518 -20.59549 38063 ft 454 kts 265°
2026-05-07 12:36 53.95858 -20.70190 38070 ft 454 kts 265°
2026-05-07 12:36 53.95186 -20.80886 38069 ft 454 kts 265°
2026-05-07 12:37 53.94509 -20.91491 38079 ft 454 kts 264°
2026-05-07 12:37 53.93812 -21.02193 38082 ft 454 kts 265°
2026-05-07 12:38 53.93111 -21.12895 38079 ft 455 kts 265°
2026-05-07 12:38 53.92404 -21.23529 38080 ft 454 kts 265°
2026-05-07 12:39 53.91682 -21.34230 38086 ft 455 kts 264°
2026-05-07 12:39 53.90955 -21.44862 38085 ft 455 kts 264°
2026-05-07 12:40 53.90213 -21.55548 38082 ft 455 kts 264°
2026-05-07 12:40 53.89462 -21.66246 38088 ft 455 kts 264°
2026-05-07 12:41 53.88706 -21.76880 38085 ft 455 kts 264°
2026-05-07 12:41 53.87937 -21.87560 38092 ft 455 kts 264°
2026-05-07 12:42 53.87157 -21.98255 38096 ft 455 kts 264°
2026-05-07 12:42 53.86371 -22.08887 38099 ft 455 kts 264°
2026-05-07 12:43 53.85573 -22.19565 38096 ft 455 kts 264°
2026-05-07 12:43 53.84765 -22.30233 38103 ft 455 kts 264°
2026-05-07 12:44 53.83949 -22.40893 38101 ft 455 kts 264°
2026-05-07 12:44 53.83127 -22.51490 38102 ft 455 kts 264°
2026-05-07 12:45 53.82282 -22.62249 38108 ft 464 kts 264°
2026-05-07 12:45 53.81411 -22.73250 38107 ft 473 kts 264°
2026-05-07 12:46 53.80526 -22.84272 38113 ft 475 kts 264°
2026-05-07 12:46 53.79622 -22.95388 38114 ft 475 kts 264°
2026-05-07 12:47 53.78712 -23.06447 38094 ft 475 kts 264°
2026-05-07 12:47 53.77787 -23.17538 38114 ft 476 kts 264°
2026-05-07 12:48 53.76860 -23.28573 38119 ft 476 kts 264°
2026-05-07 12:48 53.75916 -23.39670 38121 ft 476 kts 263°
2026-05-07 12:49 53.74967 -23.50697 38120 ft 476 kts 263°
2026-05-07 12:49 53.73999 -23.61800 38112 ft 476 kts 264°
2026-05-07 12:50 53.73025 -23.72856 38130 ft 476 kts 263°
2026-05-07 12:50 53.72041 -23.83929 38132 ft 476 kts 263°
2026-05-07 12:51 53.71052 -23.94927 38132 ft 476 kts 263°
2026-05-07 12:51 53.70044 -24.06021 38135 ft 476 kts 263°
2026-05-07 12:52 53.69025 -24.17091 38130 ft 477 kts 263°
2026-05-07 12:52 53.68006 -24.28074 38141 ft 477 kts 263°
2026-05-07 12:53 53.66964 -24.39201 38138 ft 477 kts 263°
2026-05-07 12:53 53.65917 -24.50250 38135 ft 477 kts 263°
2026-05-07 12:54 53.64863 -24.61262 38141 ft 477 kts 263°
2026-05-07 12:54 53.63793 -24.72307 38140 ft 477 kts 263°
2026-05-07 12:55 53.62711 -24.83392 38145 ft 478 kts 263°
2026-05-07 12:55 53.61620 -24.94456 38148 ft 478 kts 263°
2026-05-07 12:56 53.60522 -25.05488 38148 ft 478 kts 263°
2026-05-07 12:56 53.59409 -25.16547 38121 ft 478 kts 263°
2026-05-07 12:57 53.58292 -25.27529 38149 ft 478 kts 263°
2026-05-07 12:57 53.57158 -25.38602 38160 ft 478 kts 263°
2026-05-07 12:58 53.56023 -25.49562 38159 ft 479 kts 263°
2026-05-07 12:58 53.54866 -25.60647 38160 ft 479 kts 263°
2026-05-07 12:59 53.53707 -25.71610 38156 ft 479 kts 263°
2026-05-07 12:59 53.52530 -25.82668 38164 ft 479 kts 263°
2026-05-07 13:00 53.51345 -25.93710 38167 ft 479 kts 263°
2026-05-07 13:00 53.50152 -26.04726 38172 ft 479 kts 263°
2026-05-07 13:01 53.48956 -26.15672 38168 ft 479 kts 263°
2026-05-07 13:01 53.47741 -26.26644 38158 ft 479 kts 263°
2026-05-07 13:02 53.46525 -26.37581 38178 ft 479 kts 263°
2026-05-07 13:02 53.45288 -26.48605 38179 ft 479 kts 263°
2026-05-07 13:03 53.44048 -26.59550 38182 ft 478 kts 263°
2026-05-07 13:03 53.42792 -26.70545 38170 ft 479 kts 263°
2026-05-07 13:04 53.41521 -26.81534 38175 ft 478 kts 263°
2026-05-07 13:04 53.40255 -26.92439 38182 ft 478 kts 263°
2026-05-07 13:05 53.38970 -27.03414 38184 ft 478 kts 263°
2026-05-07 13:05 53.37894 -27.12521 38184 ft 478 kts 263°
2026-05-07 13:06 53.36597 -27.23423 38189 ft 478 kts 263°
2026-05-07 13:06 53.35282 -27.34375 38192 ft 478 kts 263°
2026-05-07 13:07 53.33963 -27.45274 38192 ft 478 kts 263°
2026-05-07 13:07 53.32628 -27.56215 38192 ft 478 kts 263°
2026-05-07 13:08 53.31288 -27.67106 38193 ft 478 kts 263°
2026-05-07 13:08 53.29933 -27.78003 38183 ft 477 kts 263°
2026-05-07 13:09 53.28582 -27.88824 38196 ft 476 kts 263°
2026-05-07 13:09 53.27214 -27.99700 38202 ft 476 kts 263°
2026-05-07 13:10 53.25834 -28.10577 38205 ft 476 kts 263°
2026-05-07 13:10 53.24455 -28.21361 38209 ft 476 kts 263°
2026-05-07 13:11 53.23053 -28.32199 38197 ft 475 kts 263°
2026-05-07 13:11 53.21658 -28.42951 38207 ft 475 kts 263°
2026-05-07 13:12 53.20242 -28.53777 38213 ft 475 kts 263°
2026-05-07 13:12 53.18826 -28.64514 38216 ft 475 kts 263°
2026-05-07 13:13 53.17394 -28.75285 38181 ft 475 kts 263°
2026-05-07 13:13 53.15949 -28.86062 38209 ft 474 kts 263°
2026-05-07 13:14 53.14506 -28.96767 38220 ft 474 kts 263°
2026-05-07 13:14 53.13048 -29.07511 38226 ft 475 kts 263°
2026-05-07 13:15 53.11585 -29.18199 38224 ft 474 kts 263°
2026-05-07 13:15 53.10100 -29.28949 38206 ft 474 kts 263°
2026-05-07 13:16 53.08614 -29.39652 38227 ft 474 kts 263°
2026-05-07 13:16 53.07127 -29.50290 38232 ft 474 kts 263°
2026-05-07 13:17 53.05619 -29.60992 38231 ft 474 kts 263°
2026-05-07 13:17 53.04098 -29.71699 38235 ft 474 kts 262°
2026-05-07 13:18 53.02580 -29.82276 38220 ft 471 kts 263°
2026-05-07 13:18 53.01051 -29.92892 38236 ft 470 kts 263°
2026-05-07 13:19 52.99664 -30.03504 38239 ft 467 kts 266°
2026-05-07 13:19 52.98562 -30.14099 38244 ft 467 kts 266°
2026-05-07 13:20 52.97442 -30.24779 38235 ft 467 kts 266°
2026-05-07 13:20 52.96323 -30.35305 38239 ft 464 kts 266°
2026-05-07 13:21 52.95190 -30.45881 38245 ft 463 kts 266°
2026-05-07 13:21 52.94055 -30.56370 38254 ft 463 kts 266°
2026-05-07 13:22 52.92904 -30.66925 38254 ft 464 kts 266°
2026-05-07 13:22 52.91745 -30.77449 38219 ft 464 kts 266°
2026-05-07 13:23 52.90584 -30.87892 38250 ft 463 kts 266°
2026-05-07 13:23 52.89406 -30.98417 38256 ft 463 kts 265°
2026-05-07 13:24 52.88220 -31.08926 38259 ft 463 kts 265°
2026-05-07 13:24 52.87030 -31.19369 38265 ft 463 kts 265°
2026-05-07 13:25 52.85823 -31.29882 38225 ft 463 kts 265°
2026-05-07 13:25 52.84608 -31.40385 38259 ft 463 kts 265°
2026-05-07 13:26 52.83390 -31.50813 38264 ft 463 kts 265°
2026-05-07 13:26 52.82157 -31.61292 38265 ft 463 kts 265°
2026-05-07 13:27 52.80913 -31.71783 38269 ft 463 kts 265°
2026-05-07 13:27 52.79664 -31.82230 38236 ft 464 kts 265°
2026-05-07 13:28 52.78401 -31.92708 38262 ft 464 kts 265°
2026-05-07 13:28 52.77137 -32.03119 38269 ft 464 kts 265°
2026-05-07 13:29 52.75852 -32.13614 38274 ft 464 kts 265°
2026-05-07 13:29 52.74565 -32.24041 38270 ft 464 kts 264°
2026-05-07 13:30 52.73264 -32.34513 38269 ft 464 kts 264°
2026-05-07 13:30 52.71962 -32.44905 38276 ft 464 kts 264°
2026-05-07 13:31 52.70643 -32.55361 38277 ft 464 kts 264°
2026-05-07 13:31 52.69321 -32.65756 38278 ft 464 kts 264°
2026-05-07 13:32 52.67981 -32.76212 38277 ft 464 kts 264°
2026-05-07 13:32 52.66641 -32.86595 38256 ft 465 kts 264°
2026-05-07 13:33 52.65279 -32.97070 38279 ft 466 kts 264°
2026-05-07 13:33 52.63906 -33.07550 38276 ft 466 kts 264°
2026-05-07 13:34 52.61838 -33.23190 38283 ft 467 kts 264°
2026-05-07 13:35 52.60440 -33.33669 38236 ft 467 kts 264°
2026-05-07 13:35 52.59039 -33.44103 38275 ft 468 kts 264°
2026-05-07 13:36 52.57619 -33.54593 38277 ft 468 kts 263°
2026-05-07 13:36 52.56198 -33.65015 38285 ft 468 kts 263°
2026-05-07 13:37 52.54767 -33.75435 38281 ft 468 kts 263°
2026-05-07 13:37 52.53315 -33.85932 38249 ft 468 kts 263°
2026-05-07 13:38 52.51869 -33.96302 38283 ft 467 kts 263°
2026-05-07 13:38 52.50409 -34.06723 38287 ft 467 kts 263°
2026-05-07 13:39 52.48942 -34.17123 38286 ft 467 kts 263°
2026-05-07 13:39 52.47465 -34.27521 38295 ft 467 kts 263°
2026-05-07 13:40 52.45983 -34.37856 38268 ft 465 kts 263°
2026-05-07 13:40 52.44493 -34.48195 38295 ft 464 kts 263°
2026-05-07 13:41 52.43004 -34.58473 38287 ft 464 kts 263°
2026-05-07 13:41 52.41500 -34.68754 38296 ft 462 kts 263°
2026-05-07 13:42 52.40004 -34.78950 38294 ft 461 kts 263°
2026-05-07 13:42 52.38489 -34.89176 38280 ft 461 kts 264°
2026-05-07 13:43 52.36966 -34.99413 38298 ft 461 kts 264°
2026-05-07 13:43 52.35448 -35.09554 38299 ft 461 kts 264°
2026-05-07 13:44 52.33905 -35.19790 38299 ft 461 kts 263°
2026-05-07 13:44 52.32363 -35.29949 38300 ft 461 kts 263°
2026-05-07 13:45 52.30803 -35.40148 38289 ft 461 kts 264°
2026-05-07 13:45 52.29237 -35.50342 38301 ft 461 kts 263°
2026-05-07 13:46 52.27669 -35.60480 38300 ft 461 kts 263°
2026-05-07 13:46 52.26086 -35.70655 38305 ft 461 kts 263°
2026-05-07 13:47 52.24487 -35.80861 38305 ft 461 kts 263°
2026-05-07 13:47 52.22898 -35.90944 38288 ft 460 kts 263°
2026-05-07 13:48 52.21299 -36.01027 38303 ft 460 kts 263°
2026-05-07 13:48 52.19683 -36.11158 38311 ft 460 kts 263°
2026-05-07 13:49 52.18060 -36.21268 38305 ft 459 kts 263°
2026-05-07 13:49 52.16443 -36.31283 38308 ft 458 kts 263°
2026-05-07 13:50 52.14806 -36.41368 38300 ft 460 kts 263°
2026-05-07 13:50 52.13151 -36.51489 38309 ft 460 kts 263°
2026-05-07 13:51 52.11504 -36.61508 38306 ft 460 kts 263°
2026-05-07 13:51 52.09834 -36.71605 38306 ft 460 kts 263°
2026-05-07 13:52 52.08167 -36.81630 38291 ft 460 kts 262°
2026-05-07 13:52 52.06765 -36.90020 38296 ft 461 kts 262°
2026-05-07 13:53 52.05068 -37.00107 38302 ft 462 kts 262°
2026-05-07 13:53 52.03362 -37.10195 38305 ft 462 kts 262°
2026-05-07 13:54 52.01657 -37.20213 38316 ft 462 kts 262°
2026-05-07 13:54 51.99931 -37.30300 38309 ft 462 kts 262°
2026-05-07 13:55 51.98212 -37.40290 38306 ft 462 kts 262°
2026-05-07 13:55 51.96472 -37.50347 38305 ft 462 kts 262°
2026-05-07 13:56 51.94723 -37.60398 38309 ft 462 kts 262°
2026-05-07 13:56 51.92980 -37.70364 38306 ft 461 kts 261°
2026-05-07 13:57 51.91220 -37.80368 38281 ft 460 kts 261°
2026-05-07 13:57 51.89451 -37.90373 38305 ft 461 kts 261°
2026-05-07 13:58 51.87668 -38.00378 38307 ft 462 kts 261°
2026-05-07 13:58 51.85879 -38.10366 38311 ft 462 kts 261°
2026-05-07 13:59 51.84078 -38.20373 38308 ft 462 kts 261°
2026-05-07 13:59 51.82285 -38.30292 38293 ft 462 kts 260°
2026-05-07 14:00 51.80464 -38.40302 38306 ft 462 kts 260°
2026-05-07 14:00 51.78646 -38.50231 38310 ft 462 kts 260°
2026-05-07 14:01 51.76809 -38.60214 38309 ft 462 kts 260°
2026-05-07 14:01 51.74964 -38.70193 38306 ft 463 kts 260°
2026-05-07 14:02 51.73120 -38.80116 38296 ft 463 kts 260°
2026-05-07 14:02 51.71262 -38.90052 38306 ft 463 kts 259°
2026-05-07 14:03 51.69393 -38.99995 38306 ft 463 kts 259°
2026-05-07 14:03 51.67512 -39.09947 38305 ft 462 kts 259°
2026-05-07 14:04 51.65631 -39.19851 38300 ft 459 kts 259°
2026-05-07 14:04 51.63766 -39.29632 38298 ft 458 kts 259°
2026-05-07 14:05 51.61877 -39.39463 38295 ft 458 kts 259°
2026-05-07 14:05 51.59992 -39.49222 38299 ft 458 kts 259°
2026-05-07 14:06 51.58084 -39.59055 38296 ft 458 kts 259°
2026-05-07 14:06 51.56172 -39.68858 38264 ft 458 kts 258°
2026-05-07 14:07 51.54257 -39.78628 38299 ft 460 kts 258°
2026-05-07 14:07 51.52314 -39.88460 38297 ft 460 kts 258°
2026-05-07 14:08 51.50467 -39.98288 38294 ft 458 kts 261°
2026-05-07 14:08 51.49180 -40.08183 38294 ft 454 kts 266°
2026-05-07 14:09 51.48137 -40.18196 38268 ft 453 kts 265°
2026-05-07 14:09 51.47085 -40.28241 38285 ft 455 kts 265°
2026-05-07 14:10 51.46024 -40.38222 38291 ft 456 kts 265°
2026-05-07 14:10 51.44947 -40.48261 38288 ft 456 kts 265°
2026-05-07 14:11 51.43858 -40.58326 38286 ft 456 kts 265°
2026-05-07 14:11 51.42770 -40.68298 38284 ft 456 kts 265°
2026-05-07 14:12 51.41666 -40.78365 38279 ft 458 kts 265°
2026-05-07 14:12 51.40554 -40.88384 38286 ft 458 kts 265°
2026-05-07 14:13 51.39428 -40.98455 38283 ft 458 kts 265°
2026-05-07 14:13 51.38295 -41.08504 38282 ft 458 kts 264°
2026-05-07 14:14 51.37157 -41.18522 38284 ft 458 kts 264°
2026-05-07 14:14 51.36008 -41.28577 38272 ft 459 kts 264°
2026-05-07 14:15 51.34844 -41.38664 38269 ft 460 kts 264°
2026-05-07 14:15 51.33674 -41.48729 38276 ft 459 kts 263°
2026-05-07 14:16 51.32494 -41.58777 38275 ft 459 kts 263°
2026-05-07 14:16 51.31312 -41.68770 38273 ft 459 kts 263°
2026-05-07 14:17 51.30113 -41.78845 38250 ft 460 kts 263°
2026-05-07 14:17 51.28900 -41.88955 38266 ft 461 kts 263°
2026-05-07 14:18 51.27686 -41.98984 38269 ft 461 kts 263°
2026-05-07 14:18 51.26457 -42.09066 38270 ft 462 kts 263°
2026-05-07 14:19 51.25220 -42.19140 38264 ft 462 kts 263°
2026-05-07 14:19 51.23982 -42.29151 38264 ft 462 kts 263°
2026-05-07 14:20 51.22727 -42.39223 38265 ft 461 kts 262°
2026-05-07 14:20 51.21467 -42.49278 38266 ft 460 kts 262°
2026-05-07 14:21 51.20196 -42.59310 38264 ft 460 kts 262°
2026-05-07 14:21 51.18923 -42.69301 38266 ft 460 kts 262°
2026-05-07 14:22 51.17645 -42.79254 38254 ft 460 kts 262°
2026-05-07 14:22 51.16346 -42.89327 38257 ft 462 kts 262°
2026-05-07 14:23 51.15037 -42.99374 38270 ft 462 kts 262°
2026-05-07 14:23 51.13727 -43.09364 38266 ft 462 kts 262°
2026-05-07 14:24 51.12888 -43.19463 38262 ft 459 kts 268°
2026-05-07 14:24 51.12326 -43.29617 38259 ft 459 kts 268°
2026-05-07 14:25 51.11387 -43.39674 38247 ft 462 kts 261°
2026-05-07 14:25 51.10030 -43.49819 38261 ft 464 kts 261°
2026-05-07 14:26 51.08632 -43.60046 38258 ft 464 kts 260°
2026-05-07 14:26 51.07261 -43.70047 38257 ft 464 kts 260°
2026-05-07 14:27 51.05881 -43.80059 38254 ft 464 kts 260°
2026-05-07 14:27 51.04491 -43.90102 38246 ft 465 kts 260°
2026-05-07 14:28 51.03097 -44.00100 38256 ft 466 kts 260°
2026-05-07 14:28 51.01670 -44.10247 38254 ft 466 kts 260°
2026-05-07 14:29 51.00252 -44.20271 38256 ft 466 kts 259°
2026-05-07 14:29 50.98824 -44.30315 38254 ft 465 kts 259°
2026-05-07 14:30 50.97388 -44.40346 38250 ft 464 kts 259°
2026-05-07 14:30 50.95938 -44.50292 38253 ft 466 kts 256°
2026-05-07 14:31 50.93878 -44.60092 38254 ft 467 kts 253°
2026-05-07 14:31 50.91761 -44.69795 38253 ft 467 kts 254°
2026-05-07 14:32 50.90003 -44.79631 38256 ft 465 kts 258°
2026-05-07 14:32 50.88494 -44.89656 38246 ft 466 kts 258°
2026-05-07 14:33 50.87006 -44.99596 38253 ft 466 kts 258°
2026-05-07 14:33 50.85503 -45.09604 38254 ft 466 kts 258°
2026-05-07 14:34 50.83992 -45.19616 38257 ft 466 kts 258°
2026-05-07 14:34 50.82475 -45.29607 38257 ft 466 kts 258°
2026-05-07 14:35 50.80970 -45.39478 38246 ft 463 kts 258°
2026-05-07 14:35 50.79443 -45.49405 38256 ft 463 kts 258°
2026-05-07 14:36 50.77911 -45.59307 38259 ft 463 kts 258°
2026-05-07 14:36 50.76378 -45.69154 38260 ft 463 kts 257°
2026-05-07 14:37 50.74837 -45.78999 38257 ft 463 kts 257°
2026-05-07 14:37 50.72498 -45.93836 38254 ft 462 kts 257°
2026-05-07 14:38 50.70941 -46.03632 38259 ft 462 kts 257°
2026-05-07 14:38 50.69364 -46.13494 38254 ft 462 kts 257°
2026-05-07 14:39 50.67780 -46.23345 38258 ft 462 kts 257°
2026-05-07 14:39 50.66210 -46.33070 38257 ft 459 kts 257°
2026-05-07 14:40 50.64887 -46.41206 38257 ft 458 kts 256°
2026-05-07 14:40 50.63035 -46.52521 38254 ft 458 kts 256°
2026-05-07 14:41 50.61700 -46.60633 38257 ft 458 kts 256°
2026-05-07 14:41 50.60094 -46.70343 38257 ft 458 kts 256°
2026-05-07 14:42 50.58478 -46.80058 38251 ft 458 kts 256°
2026-05-07 14:42 50.56861 -46.89728 38246 ft 458 kts 256°
2026-05-07 14:43 50.55227 -46.99447 38250 ft 458 kts 256°
2026-05-07 14:43 50.53593 -47.09103 38251 ft 458 kts 256°
2026-05-07 14:44 50.51945 -47.18804 38262 ft 457 kts 255°
2026-05-07 14:44 50.50301 -47.28426 38250 ft 454 kts 255°
2026-05-07 14:45 50.48655 -47.37986 38249 ft 454 kts 255°
2026-05-07 14:45 50.47006 -47.47514 38249 ft 454 kts 255°
2026-05-07 14:46 50.45337 -47.57111 38246 ft 454 kts 255°
2026-05-07 14:46 50.43662 -47.66695 38246 ft 454 kts 255°
2026-05-07 14:47 50.41987 -47.76225 38248 ft 454 kts 255°
2026-05-07 14:47 50.40299 -47.85775 38244 ft 454 kts 255°
2026-05-07 14:48 50.38604 -47.95322 38240 ft 451 kts 255°
2026-05-07 14:48 50.36920 -48.04753 38240 ft 451 kts 255°
2026-05-07 14:49 50.35221 -48.14222 38253 ft 448 kts 254°
2026-05-07 14:49 50.33527 -48.23609 38244 ft 446 kts 254°
2026-05-07 14:50 50.31840 -48.32905 38235 ft 445 kts 254°
2026-05-07 14:50 50.30136 -48.42256 38234 ft 445 kts 254°
2026-05-07 14:51 50.28431 -48.51555 38237 ft 445 kts 254°
2026-05-07 14:51 50.26712 -48.60885 38238 ft 446 kts 253°
2026-05-07 14:52 50.24992 -48.70178 38232 ft 446 kts 253°
2026-05-07 14:52 50.23261 -48.79480 38232 ft 446 kts 253°
2026-05-07 14:53 50.21527 -48.88761 38230 ft 446 kts 253°
2026-05-07 14:53 50.19777 -48.98072 38232 ft 446 kts 253°
2026-05-07 14:54 50.18021 -49.07384 38236 ft 442 kts 253°
2026-05-07 14:54 50.16291 -49.16491 38229 ft 440 kts 253°
2026-05-07 14:55 50.14540 -49.25662 38227 ft 440 kts 252°
2026-05-07 14:55 50.12784 -49.34824 38230 ft 439 kts 252°
2026-05-07 14:56 50.11028 -49.43941 38224 ft 437 kts 252°
2026-05-07 14:56 50.09278 -49.52976 38224 ft 437 kts 252°
2026-05-07 14:57 50.07508 -49.62070 38227 ft 437 kts 252°
2026-05-07 14:57 50.05749 -49.71066 38227 ft 437 kts 252°
2026-05-07 14:58 50.03964 -49.80145 38214 ft 437 kts 252°
2026-05-07 14:58 50.02175 -49.89198 38220 ft 437 kts 252°
2026-05-07 14:59 50.00387 -49.98190 38221 ft 436 kts 251°
2026-05-07 14:59 49.98338 -50.07091 38225 ft 436 kts 249°
2026-05-07 15:00 49.96222 -50.15945 38220 ft 436 kts 249°
2026-05-07 15:00 49.94095 -50.24785 38222 ft 436 kts 249°
2026-05-07 15:01 49.91962 -50.33610 38218 ft 436 kts 248°
2026-05-07 15:01 49.89828 -50.42389 38221 ft 436 kts 248°
2026-05-07 15:02 49.87674 -50.51212 38222 ft 436 kts 248°
2026-05-07 15:02 49.85511 -50.60038 38222 ft 436 kts 248°
2026-05-07 15:03 49.83356 -50.68799 38221 ft 436 kts 248°
2026-05-07 15:03 49.81181 -50.77609 38223 ft 436 kts 248°
2026-05-07 15:04 49.79012 -50.86355 38227 ft 436 kts 248°
2026-05-07 15:04 49.76840 -50.95100 38219 ft 434 kts 247°
2026-05-07 15:05 49.74662 -51.03802 38217 ft 433 kts 247°
2026-05-07 15:05 49.72477 -51.12504 38215 ft 433 kts 247°
2026-05-07 15:06 49.70286 -51.21212 38210 ft 433 kts 246°
2026-05-07 15:06 49.68098 -51.29858 38208 ft 433 kts 246°
2026-05-07 15:07 49.65890 -51.38549 38206 ft 433 kts 246°
2026-05-07 15:07 49.63692 -51.47170 38207 ft 433 kts 246°
2026-05-07 15:08 49.61469 -51.55854 38205 ft 433 kts 246°
2026-05-07 15:08 49.59247 -51.64512 38201 ft 434 kts 246°
2026-05-07 15:09 49.57005 -51.73196 38198 ft 434 kts 246°
2026-05-07 15:09 49.54768 -51.81818 38198 ft 434 kts 246°
2026-05-07 15:10 49.52517 -51.90491 38215 ft 434 kts 245°
2026-05-07 15:10 49.50455 -51.99219 38204 ft 437 kts 249°
2026-05-07 15:11 49.48894 -52.08316 38188 ft 440 kts 253°
2026-05-07 15:11 49.47612 -52.17473 38186 ft 439 kts 253°
2026-05-07 15:12 49.46319 -52.26669 38188 ft 439 kts 253°
2026-05-07 15:12 49.45024 -52.35830 38173 ft 439 kts 253°
2026-05-07 15:13 49.43719 -52.45010 38176 ft 439 kts 253°
2026-05-07 15:13 49.42406 -52.54191 38172 ft 439 kts 253°
2026-05-07 15:14 49.41091 -52.63355 38200 ft 438 kts 253°
2026-05-07 15:14 49.39774 -52.72481 38165 ft 434 kts 252°
2026-05-07 15:15 49.38462 -52.81476 38161 ft 434 kts 252°
2026-05-07 15:15 49.37134 -52.90532 38159 ft 434 kts 252°
2026-05-07 15:16 49.35801 -52.99581 38148 ft 434 kts 252°
2026-05-07 15:16 49.34467 -53.08579 38148 ft 433 kts 252°
2026-05-07 15:17 49.33122 -53.17628 38150 ft 434 kts 252°
2026-05-07 15:17 49.31774 -53.26611 38135 ft 434 kts 252°
2026-05-07 15:18 49.30413 -53.35640 38180 ft 433 kts 252°
2026-05-07 15:18 49.29049 -53.44656 38139 ft 432 kts 251°
2026-05-07 15:19 49.27688 -53.53575 38133 ft 432 kts 251°
2026-05-07 15:19 49.26308 -53.62572 38126 ft 432 kts 251°
2026-05-07 15:20 49.24919 -53.71585 38119 ft 431 kts 251°
2026-05-07 15:20 49.23540 -53.80480 38107 ft 431 kts 251°
2026-05-07 15:21 49.22144 -53.89428 38106 ft 430 kts 251°
2026-05-07 15:21 49.20744 -53.98364 38107 ft 430 kts 251°
2026-05-07 15:22 49.19345 -54.07239 38154 ft 430 kts 251°
2026-05-07 15:22 49.17938 -54.16146 38107 ft 430 kts 250°
2026-05-07 15:23 49.16524 -54.25004 38107 ft 431 kts 250°
2026-05-07 15:23 49.15095 -54.33925 38101 ft 431 kts 250°
2026-05-07 15:24 49.13658 -54.42846 38093 ft 431 kts 250°
2026-05-07 15:24 49.12222 -54.51716 38085 ft 431 kts 250°
2026-05-07 15:25 49.10779 -54.60584 38081 ft 431 kts 250°
2026-05-07 15:25 49.09325 -54.69464 38078 ft 431 kts 250°
2026-05-07 15:26 49.07857 -54.78387 38123 ft 432 kts 250°
2026-05-07 15:26 49.06393 -54.87244 38089 ft 432 kts 250°
2026-05-07 15:27 49.04915 -54.96140 38071 ft 432 kts 250°
2026-05-07 15:27 49.03422 -55.05078 38066 ft 432 kts 250°
2026-05-07 15:28 49.01935 -55.13934 38062 ft 432 kts 250°
2026-05-07 15:28 49.00431 -55.22825 38047 ft 434 kts 250°
2026-05-07 15:29 48.98913 -55.31771 38047 ft 435 kts 250°
2026-05-07 15:29 48.97395 -55.40678 38047 ft 435 kts 250°
2026-05-07 15:30 48.96121 -55.48117 38094 ft 435 kts 250°
2026-05-07 15:30 48.94595 -55.56981 38044 ft 435 kts 250°
2026-05-07 15:31 48.93046 -55.65937 38031 ft 435 kts 250°
2026-05-07 15:31 48.91495 -55.74838 38023 ft 437 kts 250°
2026-05-07 15:32 48.89927 -55.83807 38019 ft 438 kts 250°
2026-05-07 15:32 48.88364 -55.92717 38015 ft 438 kts 250°
2026-05-07 15:33 48.86785 -56.01664 38016 ft 438 kts 250°
2026-05-07 15:33 48.85198 -56.10608 38005 ft 438 kts 250°
2026-05-07 15:34 48.84400 -56.15092 38130 ft 437 kts 250°
2026-05-07 15:34 48.83602 -56.19557 38309 ft 437 kts 250°
2026-05-07 15:34 48.82810 -56.23968 38463 ft 437 kts 250°
2026-05-07 15:34 48.82006 -56.28437 38601 ft 437 kts 250°
2026-05-07 15:35 48.81205 -56.32896 38721 ft 437 kts 250°
2026-05-07 15:35 48.80403 -56.37350 38823 ft 437 kts 250°
2026-05-07 15:35 48.79598 -56.41805 38943 ft 437 kts 250°
2026-05-07 15:35 48.78801 -56.46204 39051 ft 437 kts 250°
2026-05-07 15:36 48.77991 -56.50665 39163 ft 437 kts 250°
2026-05-07 15:36 48.77180 -56.55124 39284 ft 437 kts 250°
2026-05-07 15:36 48.76369 -56.59568 39385 ft 437 kts 250°
2026-05-07 15:36 48.75562 -56.63974 39494 ft 437 kts 251°
2026-05-07 15:37 48.74747 -56.68418 39622 ft 437 kts 251°
2026-05-07 15:37 48.73931 -56.72862 39720 ft 437 kts 251°
2026-05-07 15:37 48.73116 -56.77270 39839 ft 436 kts 251°
2026-05-07 15:37 48.72299 -56.81691 39954 ft 436 kts 251°
2026-05-07 15:38 48.70658 -56.90547 39973 ft 434 kts 251°
2026-05-07 15:38 48.69029 -56.99303 39962 ft 433 kts 251°
2026-05-07 15:39 48.67385 -57.08090 39958 ft 433 kts 251°
2026-05-07 15:39 48.65733 -57.16874 39966 ft 433 kts 251°
2026-05-07 15:40 48.64081 -57.25621 39964 ft 433 kts 251°
2026-05-07 15:40 48.62416 -57.34393 39967 ft 433 kts 251°
2026-05-07 15:41 48.60747 -57.43142 39945 ft 433 kts 251°
2026-05-07 15:41 48.59074 -57.51873 39941 ft 432 kts 250°
2026-05-07 15:42 48.57390 -57.60627 39938 ft 429 kts 250°
2026-05-07 15:42 48.55720 -57.69260 39923 ft 432 kts 250°
2026-05-07 15:43 48.54022 -57.78001 39913 ft 431 kts 250°
2026-05-07 15:43 48.52333 -57.86662 39915 ft 431 kts 250°
2026-05-07 15:44 48.50627 -57.95366 39907 ft 431 kts 250°
2026-05-07 15:44 48.48922 -58.04021 39907 ft 431 kts 250°
2026-05-07 15:45 48.47204 -58.12710 39907 ft 431 kts 250°
2026-05-07 15:45 48.45478 -58.21398 39932 ft 431 kts 250°
2026-05-07 15:46 48.42877 -58.34415 39880 ft 434 kts 250°
2026-05-07 15:47 48.41127 -58.43127 39883 ft 434 kts 250°
2026-05-07 15:47 48.39370 -58.51832 39851 ft 435 kts 250°
2026-05-07 15:48 48.37604 -58.60548 39850 ft 435 kts 250°
2026-05-07 15:48 48.35826 -58.69282 39858 ft 435 kts 250°
2026-05-07 15:49 48.34053 -58.77944 39830 ft 435 kts 250°
2026-05-07 15:49 48.32256 -58.86698 39836 ft 436 kts 250°
2026-05-07 15:50 48.30471 -58.95348 39843 ft 436 kts 250°
2026-05-07 15:50 48.28662 -59.04082 39810 ft 436 kts 250°
2026-05-07 15:51 48.26848 -59.12807 39805 ft 436 kts 250°
2026-05-07 15:51 48.25034 -59.21487 39792 ft 436 kts 250°
2026-05-07 15:51 48.24130 -59.25786 39790 ft 424 kts 250°
2026-05-07 15:52 48.23250 -59.29980 39784 ft 418 kts 250°
2026-05-07 15:52 48.21501 -59.38283 39784 ft 416 kts 250°
2026-05-07 15:53 48.19760 -59.46513 39784 ft 416 kts 250°
2026-05-07 15:53 48.17995 -59.54818 39788 ft 416 kts 250°
2026-05-07 15:54 48.16241 -59.63046 39790 ft 415 kts 250°
2026-05-07 15:54 48.14476 -59.71287 39773 ft 414 kts 250°
2026-05-07 15:55 48.12709 -59.79498 39771 ft 413 kts 250°
2026-05-07 15:55 48.10952 -59.87636 39759 ft 413 kts 249°
2026-05-07 15:56 48.09176 -59.95829 39758 ft 413 kts 249°
2026-05-07 15:56 48.07394 -60.04013 39759 ft 413 kts 249°
2026-05-07 15:57 48.05617 -60.12146 39742 ft 413 kts 249°
2026-05-07 15:57 48.03823 -60.20324 39725 ft 412 kts 249°
2026-05-07 15:58 48.02037 -60.28443 39745 ft 414 kts 249°
2026-05-07 15:58 48.00225 -60.36637 39729 ft 414 kts 249°
2026-05-07 15:59 47.98416 -60.44786 39732 ft 414 kts 249°
2026-05-07 15:59 47.96591 -60.52978 39729 ft 414 kts 249°
2026-05-07 16:00 47.94774 -60.61103 39729 ft 414 kts 249°
2026-05-07 16:00 47.92940 -60.69264 39707 ft 414 kts 249°
2026-05-07 16:01 47.91097 -60.77440 39716 ft 415 kts 249°
2026-05-07 16:01 47.89259 -60.85567 39713 ft 415 kts 249°
2026-05-07 16:02 47.87402 -60.93749 39716 ft 416 kts 249°
2026-05-07 16:02 47.85543 -61.01904 39710 ft 416 kts 249°
2026-05-07 16:03 47.83671 -61.10083 39709 ft 416 kts 249°
2026-05-07 16:03 47.81803 -61.18205 39695 ft 415 kts 249°
2026-05-07 16:04 47.79924 -61.26357 39695 ft 414 kts 249°
2026-05-07 16:04 47.78059 -61.34417 39696 ft 414 kts 249°
2026-05-07 16:05 47.76170 -61.42548 39694 ft 414 kts 249°
2026-05-07 16:05 47.74290 -61.50608 39694 ft 414 kts 249°
2026-05-07 16:06 47.72391 -61.58728 39696 ft 413 kts 249°
2026-05-07 16:06 47.70501 -61.66763 39693 ft 412 kts 249°
2026-05-07 16:07 47.68607 -61.74795 39694 ft 411 kts 249°
2026-05-07 16:07 47.66704 -61.82832 39680 ft 411 kts 248°
2026-05-07 16:08 47.64805 -61.90825 39690 ft 411 kts 248°
2026-05-07 16:08 47.62887 -61.98867 39691 ft 411 kts 248°
2026-05-07 16:09 47.60971 -62.06877 39680 ft 411 kts 248°
2026-05-07 16:09 47.59058 -62.14840 39679 ft 411 kts 248°
2026-05-07 16:10 47.57129 -62.22851 39682 ft 412 kts 248°
2026-05-07 16:10 47.55199 -62.30824 39678 ft 412 kts 248°
2026-05-07 16:11 47.53247 -62.38861 39672 ft 412 kts 248°
2026-05-07 16:11 47.51299 -62.46851 39669 ft 412 kts 248°
2026-05-07 16:12 47.49350 -62.54819 39670 ft 412 kts 248°
2026-05-07 16:12 47.47392 -62.62798 39669 ft 412 kts 248°
2026-05-07 16:13 47.45427 -62.70775 39663 ft 412 kts 248°
2026-05-07 16:13 47.43457 -62.78743 39705 ft 412 kts 248°
2026-05-07 16:14 47.41494 -62.86654 39671 ft 412 kts 248°
2026-05-07 16:14 47.39512 -62.94616 39663 ft 412 kts 247°
2026-05-07 16:15 47.37532 -63.02538 39641 ft 412 kts 248°
2026-05-07 16:15 47.35541 -63.10477 39652 ft 411 kts 248°
2026-05-07 16:16 47.33548 -63.18401 39649 ft 411 kts 248°
2026-05-07 16:16 47.31560 -63.26278 39652 ft 411 kts 248°
2026-05-07 16:17 47.29558 -63.34182 39653 ft 411 kts 247°
2026-05-07 16:17 47.27555 -63.42062 39685 ft 410 kts 247°
2026-05-07 16:18 47.25554 -63.49910 39659 ft 408 kts 247°
2026-05-07 16:18 47.23560 -63.57696 39645 ft 407 kts 247°
2026-05-07 16:19 47.21879 -63.64244 39648 ft 407 kts 247°
2026-05-07 16:19 47.19879 -63.72005 39646 ft 407 kts 247°
2026-05-07 16:20 47.17878 -63.79751 39648 ft 407 kts 247°
2026-05-07 16:20 47.15858 -63.87540 39646 ft 407 kts 247°
2026-05-07 16:21 47.13834 -63.95319 39652 ft 406 kts 247°
2026-05-07 16:21 47.11814 -64.03060 39660 ft 405 kts 247°
2026-05-07 16:22 47.09797 -64.10757 39663 ft 405 kts 247°
2026-05-07 16:22 47.07766 -64.18487 39656 ft 405 kts 246°
2026-05-07 16:23 47.05727 -64.26221 39650 ft 405 kts 246°
2026-05-07 16:23 47.03702 -64.33874 39660 ft 405 kts 246°
2026-05-07 16:24 47.01653 -64.41596 39648 ft 404 kts 246°
2026-05-07 16:24 46.99619 -64.49233 39649 ft 403 kts 246°
2026-05-07 16:25 46.97572 -64.56893 39659 ft 403 kts 246°
2026-05-07 16:25 46.95514 -64.64572 39677 ft 404 kts 246°
2026-05-07 16:26 46.93449 -64.72248 39654 ft 407 kts 246°
2026-05-07 16:26 46.91359 -64.79996 39655 ft 408 kts 246°
2026-05-07 16:27 46.89286 -64.87650 39649 ft 406 kts 246°
2026-05-07 16:27 46.87198 -64.95344 39663 ft 406 kts 246°
2026-05-07 16:28 46.85112 -65.03000 39649 ft 406 kts 246°
2026-05-07 16:28 46.83015 -65.10674 39664 ft 405 kts 246°
2026-05-07 16:29 46.80925 -65.18297 39666 ft 405 kts 246°
2026-05-07 16:29 46.78817 -65.25960 39686 ft 406 kts 246°
2026-05-07 16:30 46.76702 -65.33628 39662 ft 405 kts 246°
2026-05-07 16:30 46.74597 -65.41228 39668 ft 405 kts 246°
2026-05-07 16:31 46.72476 -65.48866 39671 ft 405 kts 246°
2026-05-07 16:31 46.70361 -65.56455 39670 ft 405 kts 246°
2026-05-07 16:32 46.68229 -65.64084 39677 ft 405 kts 246°
2026-05-07 16:32 46.66099 -65.71680 39659 ft 405 kts 246°
2026-05-07 16:33 46.63966 -65.79260 39672 ft 403 kts 246°
2026-05-07 16:33 46.61841 -65.86797 39701 ft 404 kts 245°
2026-05-07 16:34 46.59690 -65.94398 39687 ft 405 kts 245°
2026-05-07 16:34 46.57552 -66.01927 39681 ft 405 kts 245°
2026-05-07 16:35 46.55390 -66.09519 39684 ft 405 kts 245°
2026-05-07 16:35 46.53221 -66.17116 39681 ft 405 kts 245°
2026-05-07 16:36 46.51068 -66.24632 39688 ft 404 kts 245°
2026-05-07 16:36 46.48901 -66.32164 39684 ft 404 kts 245°
2026-05-07 16:37 46.46728 -66.39699 39692 ft 404 kts 245°
2026-05-07 16:37 46.44542 -66.47256 39708 ft 406 kts 245°
2026-05-07 16:38 46.42353 -66.54801 39697 ft 407 kts 245°
2026-05-07 16:38 46.40141 -66.62402 39695 ft 407 kts 245°
2026-05-07 16:39 46.37941 -66.69942 39699 ft 408 kts 245°
2026-05-07 16:39 46.35722 -66.77519 39701 ft 407 kts 245°
2026-05-07 16:40 46.33494 -66.85104 39704 ft 407 kts 245°
2026-05-07 16:40 46.31274 -66.92638 39707 ft 407 kts 245°
2026-05-07 16:41 46.29044 -67.00185 39706 ft 407 kts 245°
2026-05-07 16:41 46.26808 -67.07722 39715 ft 407 kts 245°
2026-05-07 16:42 46.24581 -67.15215 39711 ft 408 kts 245°
2026-05-07 16:42 46.22334 -67.22752 39711 ft 407 kts 245°
2026-05-07 16:43 46.20091 -67.30250 39715 ft 407 kts 245°
2026-05-07 16:43 46.17846 -67.37730 39713 ft 407 kts 245°
2026-05-07 16:44 46.15586 -67.45233 39706 ft 407 kts 245°
2026-05-07 16:44 46.13317 -67.52746 39705 ft 406 kts 245°
2026-05-07 16:45 46.11049 -67.60231 39735 ft 407 kts 245°
2026-05-07 16:45 46.08771 -67.67722 39706 ft 409 kts 245°
2026-05-07 16:46 46.06470 -67.75265 39705 ft 409 kts 245°
2026-05-07 16:46 46.04162 -67.82787 39701 ft 409 kts 244°
2026-05-07 16:47 46.01664 -67.90119 39700 ft 408 kts 243°
2026-05-07 16:47 45.99136 -67.97466 39706 ft 408 kts 243°
2026-05-07 16:48 45.96618 -68.04746 39712 ft 408 kts 243°
2026-05-07 16:48 45.94072 -68.12076 39716 ft 408 kts 242°
2026-05-07 16:49 45.91523 -68.19390 39744 ft 409 kts 243°
2026-05-07 16:49 45.88975 -68.26673 39732 ft 409 kts 243°
2026-05-07 16:50 45.86412 -68.33984 39736 ft 409 kts 243°
2026-05-07 16:50 45.83863 -68.41234 39739 ft 409 kts 243°
2026-05-07 16:51 45.81286 -68.48546 39746 ft 409 kts 242°
2026-05-07 16:51 45.78724 -68.55792 39745 ft 409 kts 242°
2026-05-07 16:52 45.76137 -68.63088 39727 ft 408 kts 243°
2026-05-07 16:52 45.73578 -68.70284 39735 ft 406 kts 243°
2026-05-07 16:53 45.71003 -68.77511 39763 ft 407 kts 243°
2026-05-07 16:53 45.68417 -68.84749 39732 ft 410 kts 242°
2026-05-07 16:54 45.65806 -68.92035 39742 ft 410 kts 242°
2026-05-07 16:54 45.63196 -68.99298 39734 ft 410 kts 242°
2026-05-07 16:55 45.60595 -69.06516 39735 ft 408 kts 243°
2026-05-07 16:55 45.57987 -69.13736 39740 ft 407 kts 242°
2026-05-07 16:56 45.55395 -69.20893 39740 ft 407 kts 242°
2026-05-07 16:56 45.51465 -69.31707 39741 ft 407 kts 242°
2026-05-07 16:57 45.48855 -69.38865 39729 ft 410 kts 242°
2026-05-07 16:57 45.46215 -69.46084 39747 ft 407 kts 242°
2026-05-07 16:58 45.43601 -69.53216 39750 ft 407 kts 242°
2026-05-07 16:58 45.40970 -69.60377 39731 ft 407 kts 242°
2026-05-07 16:59 45.38353 -69.67478 39747 ft 407 kts 242°
2026-05-07 16:59 45.35711 -69.74631 39750 ft 407 kts 242°
2026-05-07 17:00 45.33067 -69.81767 39747 ft 406 kts 242°
2026-05-07 17:00 45.30442 -69.88837 39747 ft 405 kts 242°
2026-05-07 17:01 45.27802 -69.95926 39745 ft 405 kts 242°
2026-05-07 17:01 45.25151 -70.03027 39750 ft 405 kts 242°
2026-05-07 17:02 45.22515 -70.10070 39747 ft 405 kts 242°
2026-05-07 17:02 45.19858 -70.17147 39739 ft 403 kts 242°
2026-05-07 17:03 45.17229 -70.24133 39746 ft 402 kts 242°
2026-05-07 17:03 45.14584 -70.31147 39747 ft 402 kts 242°
2026-05-07 17:04 45.11953 -70.38105 39751 ft 402 kts 242°
2026-05-07 17:04 45.09301 -70.45098 39764 ft 402 kts 242°
2026-05-07 17:05 45.07084 -70.50923 39770 ft 403 kts 242°
2026-05-07 17:05 45.04416 -70.57930 39760 ft 403 kts 242°
2026-05-07 17:06 45.01764 -70.64875 39762 ft 403 kts 242°
2026-05-07 17:06 44.99085 -70.71871 39770 ft 403 kts 242°
2026-05-07 17:07 44.96401 -70.78860 39767 ft 403 kts 242°
2026-05-07 17:07 44.93732 -70.85789 39747 ft 403 kts 242°
2026-05-07 17:08 44.91047 -70.92735 39777 ft 401 kts 242°
2026-05-07 17:08 44.88369 -70.99651 39783 ft 400 kts 242°
2026-05-07 17:09 44.85569 -71.06476 39778 ft 402 kts 239°
2026-05-07 17:09 44.82361 -71.12907 39788 ft 404 kts 234°
2026-05-07 17:10 44.78724 -71.18978 39770 ft 405 kts 231°
2026-05-07 17:10 44.75019 -71.24899 39787 ft 404 kts 231°
2026-05-07 17:11 44.71283 -71.30855 39798 ft 404 kts 231°
2026-05-07 17:11 44.67565 -71.36753 39806 ft 404 kts 231°
2026-05-07 17:12 44.63829 -71.42665 39806 ft 404 kts 231°
2026-05-07 17:12 44.60089 -71.48562 39801 ft 402 kts 231°
2026-05-07 17:13 44.56390 -71.54385 39799 ft 401 kts 231°
2026-05-07 17:13 44.52660 -71.60246 39804 ft 401 kts 231°
2026-05-07 17:14 44.48946 -71.66067 39802 ft 401 kts 231°
2026-05-07 17:14 44.45217 -71.71899 39809 ft 401 kts 231°
2026-05-07 17:15 44.41479 -71.77734 39803 ft 402 kts 231°
2026-05-07 17:15 44.37756 -71.83534 39805 ft 402 kts 231°
2026-05-07 17:16 44.34020 -71.89340 39811 ft 402 kts 231°
2026-05-07 17:16 44.30271 -71.95154 39803 ft 400 kts 231°
2026-05-07 17:17 44.26563 -72.00894 39799 ft 400 kts 231°
2026-05-07 17:17 44.22825 -72.06670 39814 ft 400 kts 231°
2026-05-07 17:18 44.19088 -72.12431 39813 ft 400 kts 231°
2026-05-07 17:18 44.15375 -72.18142 39803 ft 399 kts 231°
2026-05-07 17:19 44.11641 -72.23875 39836 ft 398 kts 231°
2026-05-07 17:19 44.07925 -72.29571 39841 ft 398 kts 231°
2026-05-07 17:20 44.04185 -72.35292 39843 ft 399 kts 231°
2026-05-07 17:20 44.00441 -72.41004 39835 ft 399 kts 231°
2026-05-07 17:21 43.96731 -72.46651 39838 ft 396 kts 231°
2026-05-07 17:21 43.93002 -72.52320 39851 ft 396 kts 231°
2026-05-07 17:22 43.89282 -72.57965 39855 ft 396 kts 231°
2026-05-07 17:22 43.85577 -72.63574 39835 ft 396 kts 231°
2026-05-07 17:23 43.81850 -72.69202 39844 ft 394 kts 231°
2026-05-07 17:23 43.78129 -72.74815 39849 ft 394 kts 231°
2026-05-07 17:24 43.74420 -72.80397 39860 ft 394 kts 231°
2026-05-07 17:24 43.70689 -72.86002 39857 ft 394 kts 231°
2026-05-07 17:25 43.66971 -72.91570 39851 ft 392 kts 231°
2026-05-07 17:25 43.63284 -72.97090 39872 ft 393 kts 231°
2026-05-07 17:26 43.59585 -73.02616 39866 ft 395 kts 231°
2026-05-07 17:26 43.55860 -73.08162 39628 ft 389 kts 231°
2026-05-07 17:27 43.54012 -73.10911 39032 ft 390 kts 231°
2026-05-07 17:27 43.52156 -73.13671 38374 ft 392 kts 231°
2026-05-07 17:27 43.50290 -73.16440 37707 ft 392 kts 231°
2026-05-07 17:27 43.48461 -73.19151 37151 ft 390 kts 231°
2026-05-07 17:28 43.46615 -73.21884 36564 ft 388 kts 231°
2026-05-07 17:28 43.44768 -73.24616 36024 ft 386 kts 231°
2026-05-07 17:28 43.42939 -73.27320 35472 ft 385 kts 231°
2026-05-07 17:28 43.41126 -73.29999 34901 ft 384 kts 231°
2026-05-07 17:29 43.39303 -73.32686 34374 ft 382 kts 232°
2026-05-07 17:29 43.37483 -73.35368 33752 ft 381 kts 232°
2026-05-07 17:29 43.35678 -73.38026 33112 ft 379 kts 232°
2026-05-07 17:29 43.33891 -73.40660 32096 ft 385 kts 232°
2026-05-07 17:30 43.32035 -73.43395 31084 ft 391 kts 232°
2026-05-07 17:30 43.30167 -73.46137 30353 ft 391 kts 232°
2026-05-07 17:30 43.28303 -73.48867 29522 ft 391 kts 232°
2026-05-07 17:30 43.26460 -73.51568 28555 ft 393 kts 232°
2026-05-07 17:31 43.24564 -73.54345 27766 ft 391 kts 232°
2026-05-07 17:31 43.22728 -73.57014 27038 ft 388 kts 230°
2026-05-07 17:31 43.20665 -73.59403 26636 ft 386 kts 223°
2026-05-07 17:31 43.18385 -73.61347 26213 ft 385 kts 216°
2026-05-07 17:32 43.15913 -73.62846 25573 ft 391 kts 209°
2026-05-07 17:32 43.13318 -73.64016 24963 ft 390 kts 207°
2026-05-07 17:32 43.10738 -73.65140 24364 ft 388 kts 207°
2026-05-07 17:32 43.09035 -73.65873 24097 ft 385 kts 207°
2026-05-07 17:33 43.05643 -73.67324 23892 ft 385 kts 207°
2026-05-07 17:33 43.03082 -73.68416 23880 ft 386 kts 207°
2026-05-07 17:33 43.00511 -73.69506 23897 ft 386 kts 207°
2026-05-07 17:33 42.97934 -73.70597 23901 ft 386 kts 207°
2026-05-07 17:34 42.95359 -73.71685 23903 ft 386 kts 207°
2026-05-07 17:34 42.92781 -73.72773 23898 ft 386 kts 207°
2026-05-07 17:34 42.90209 -73.73856 23908 ft 387 kts 207°
2026-05-07 17:34 42.87650 -73.74934 23916 ft 387 kts 207°
2026-05-07 17:35 42.85077 -73.76015 23873 ft 386 kts 207°
2026-05-07 17:35 42.82500 -73.77096 23896 ft 386 kts 207°
2026-05-07 17:35 42.79924 -73.78176 23903 ft 386 kts 207°
2026-05-07 17:35 42.77355 -73.79254 23909 ft 386 kts 207°
2026-05-07 17:36 42.74816 -73.80320 23911 ft 386 kts 207°
2026-05-07 17:36 42.72250 -73.81449 23918 ft 385 kts 208°
2026-05-07 17:36 42.69706 -73.82601 23918 ft 385 kts 208°
2026-05-07 17:36 42.67163 -73.83754 23885 ft 385 kts 208°
2026-05-07 17:37 42.64616 -73.84904 23898 ft 385 kts 208°
2026-05-07 17:37 42.62111 -73.86032 23899 ft 385 kts 208°
2026-05-07 17:37 42.59534 -73.87190 23905 ft 385 kts 208°
2026-05-07 17:37 42.56971 -73.88339 23909 ft 385 kts 208°
2026-05-07 17:38 42.54452 -73.89466 23906 ft 385 kts 208°
2026-05-07 17:38 42.51896 -73.90607 23909 ft 384 kts 208°
2026-05-07 17:38 42.49345 -73.91746 23909 ft 384 kts 208°
2026-05-07 17:38 42.46790 -73.92883 23887 ft 385 kts 208°
2026-05-07 17:39 42.44243 -73.94018 23904 ft 385 kts 208°
2026-05-07 17:39 42.41724 -73.95139 23904 ft 385 kts 208°
2026-05-07 17:39 42.39172 -73.96273 23909 ft 385 kts 208°
2026-05-07 17:39 42.36619 -73.97407 23905 ft 385 kts 208°
2026-05-07 17:40 42.34094 -73.98525 23907 ft 385 kts 208°
2026-05-07 17:40 42.31533 -73.99658 23906 ft 385 kts 208°
2026-05-07 17:40 42.29015 -74.00768 23734 ft 379 kts 208°
2026-05-07 17:40 42.26510 -74.01876 22966 ft 379 kts 208°
2026-05-07 17:41 42.23991 -74.03000 22154 ft 380 kts 207°
2026-05-07 17:41 42.21486 -74.04109 21597 ft 376 kts 207°
2026-05-07 17:41 42.19010 -74.05207 20971 ft 373 kts 207°
2026-05-07 17:41 42.16546 -74.06299 20275 ft 372 kts 206°
2026-05-07 17:42 42.14104 -74.07375 19641 ft 371 kts 206°
2026-05-07 17:42 42.11665 -74.08445 19042 ft 368 kts 205°
2026-05-07 17:42 42.09237 -74.09513 18433 ft 365 kts 205°
2026-05-07 17:42 42.06815 -74.10580 17781 ft 364 kts 205°
2026-05-07 17:43 42.04443 -74.11622 17150 ft 362 kts 205°
2026-05-07 17:43 42.02050 -74.12673 16617 ft 358 kts 205°
2026-05-07 17:43 41.99690 -74.13706 16132 ft 354 kts 205°
2026-05-07 17:43 41.97362 -74.14724 15690 ft 350 kts 205°
2026-05-07 17:44 41.95059 -74.15731 15215 ft 346 kts 205°
2026-05-07 17:44 41.92779 -74.16726 14792 ft 342 kts 205°
2026-05-07 17:44 41.90523 -74.17712 14356 ft 339 kts 205°
2026-05-07 17:44 41.88287 -74.18690 13946 ft 336 kts 205°
2026-05-07 17:45 41.86073 -74.19656 13499 ft 333 kts 205°
2026-05-07 17:45 41.83874 -74.20617 13040 ft 331 kts 205°
2026-05-07 17:45 41.81682 -74.21575 12588 ft 330 kts 205°
2026-05-07 17:45 41.79506 -74.22525 12147 ft 328 kts 205°
2026-05-07 17:46 41.77356 -74.23461 11695 ft 327 kts 205°
2026-05-07 17:46 41.75194 -74.24401 11248 ft 326 kts 205°
2026-05-07 17:46 41.73043 -74.25336 10856 ft 323 kts 205°
2026-05-07 17:46 41.70951 -74.26238 10749 ft 309 kts 205°
2026-05-07 17:47 41.68932 -74.27109 10616 ft 298 kts 206°
2026-05-07 17:47 41.66982 -74.27954 10339 ft 292 kts 206°
2026-05-07 17:47 41.65068 -74.28787 10056 ft 287 kts 206°
2026-05-07 17:47 41.63206 -74.29596 9825 ft 279 kts 207°
2026-05-07 17:48 41.61367 -74.30391 9701 ft 270 kts 207°
2026-05-07 17:48 41.59594 -74.31163 9544 ft 269 kts 207°
2026-05-07 17:48 41.57812 -74.31941 9415 ft 270 kts 206°
2026-05-07 17:48 41.56024 -74.32720 9280 ft 269 kts 206°
2026-05-07 17:49 41.54229 -74.33500 9058 ft 269 kts 206°
2026-05-07 17:49 41.52448 -74.34272 8767 ft 268 kts 205°
2026-05-07 17:49 41.50676 -74.35040 8484 ft 267 kts 205°
2026-05-07 17:49 41.48937 -74.35791 8203 ft 266 kts 204°
2026-05-07 17:50 41.47173 -74.36550 7892 ft 264 kts 204°
2026-05-07 17:50 41.45419 -74.37306 7600 ft 262 kts 203°
2026-05-07 17:50 41.43687 -74.38052 7313 ft 261 kts 203°
2026-05-07 17:50 41.41949 -74.38803 7020 ft 261 kts 202°
2026-05-07 17:51 41.40205 -74.39557 6901 ft 270 kts 202°
2026-05-07 17:51 41.38984 -74.40083 6918 ft 273 kts 201°
2026-05-07 17:51 41.36577 -74.41110 6954 ft 274 kts 202°
2026-05-07 17:51 41.34763 -74.41887 6981 ft 274 kts 202°
2026-05-07 17:52 41.33557 -74.42403 6979 ft 274 kts 202°
2026-05-07 17:52 41.31741 -74.43183 6996 ft 274 kts 201°
2026-05-07 17:52 41.29924 -74.43963 7000 ft 274 kts 201°
2026-05-07 17:52 41.28106 -74.44742 7000 ft 273 kts 202°
2026-05-07 17:53 41.26285 -74.45525 7000 ft 273 kts 201°
2026-05-07 17:53 41.24499 -74.46290 7002 ft 273 kts 202°
2026-05-07 17:53 41.22680 -74.47069 7006 ft 273 kts 201°
2026-05-07 17:53 41.20851 -74.47852 7002 ft 273 kts 201°
2026-05-07 17:54 41.19156 -74.48576 7000 ft 273 kts 201°
2026-05-07 17:54 41.17323 -74.49358 7010 ft 273 kts 201°
2026-05-07 17:54 41.15512 -74.50133 7005 ft 273 kts 202°
2026-05-07 17:54 41.13725 -74.50896 6993 ft 273 kts 202°
2026-05-07 17:55 41.11911 -74.51671 7011 ft 274 kts 202°
2026-05-07 17:55 41.10090 -74.52449 6998 ft 274 kts 202°
2026-05-07 17:55 41.08274 -74.53221 6999 ft 274 kts 200°
2026-05-07 17:55 41.06405 -74.53816 6999 ft 276 kts 194°
2026-05-07 17:56 41.04487 -74.54118 7004 ft 278 kts 188°
2026-05-07 17:56 41.02557 -74.54302 7007 ft 278 kts 187°
2026-05-07 17:56 41.00619 -74.54465 7001 ft 278 kts 187°
2026-05-07 17:56 40.98699 -74.54632 6991 ft 278 kts 187°
2026-05-07 17:57 40.96763 -74.54803 6983 ft 277 kts 187°
2026-05-07 17:57 40.95482 -74.54919 6991 ft 278 kts 187°
2026-05-07 17:57 40.92927 -74.55147 6986 ft 278 kts 187°
2026-05-07 17:57 40.90985 -74.55324 6986 ft 278 kts 188°
2026-05-07 17:58 40.89051 -74.55501 6979 ft 279 kts 188°
2026-05-07 17:58 40.87118 -74.55680 6987 ft 279 kts 188°
2026-05-07 17:58 40.85173 -74.55860 6985 ft 279 kts 188°
2026-05-07 17:58 40.83232 -74.55994 6984 ft 280 kts 185°
2026-05-07 17:59 40.81273 -74.55981 6782 ft 281 kts 181°
2026-05-07 17:59 40.79356 -74.55883 6525 ft 279 kts 180°
2026-05-07 17:59 40.77412 -74.55774 6267 ft 279 kts 180°
2026-05-07 17:59 40.75469 -74.55663 6027 ft 278 kts 179°
2026-05-07 18:00 40.73525 -74.55552 5754 ft 277 kts 179°
2026-05-07 18:00 40.71594 -74.55445 5479 ft 277 kts 179°
2026-05-07 18:00 40.69695 -74.55344 5213 ft 276 kts 179°
2026-05-07 18:00 40.67780 -74.55242 4961 ft 274 kts 179°
2026-05-07 18:01 40.65877 -74.55141 4695 ft 273 kts 178°
2026-05-07 18:01 40.64024 -74.54654 4404 ft 272 kts 154°
2026-05-07 18:01 40.62615 -74.53110 4149 ft 267 kts 124°
2026-05-07 18:01 40.61926 -74.50886 3858 ft 259 kts 98°
2026-05-07 18:02 40.60989 -74.46541 3584 ft 239 kts 118°
2026-05-07 18:02 40.60176 -74.44724 3526 ft 227 kts 121°
2026-05-07 18:02 40.59354 -74.43020 3394 ft 213 kts 122°
2026-05-07 18:03 40.58563 -74.41436 3236 ft 199 kts 123°
2026-05-07 18:03 40.57813 -74.39952 3100 ft 193 kts 123°
2026-05-07 18:03 40.57062 -74.38479 2921 ft 195 kts 123°
2026-05-07 18:03 40.56300 -74.36987 2843 ft 196 kts 123°
2026-05-07 18:04 40.55544 -74.35510 2800 ft 192 kts 124°
2026-05-07 18:04 40.54795 -74.34055 2803 ft 192 kts 123°
2026-05-07 18:04 40.54054 -74.32614 2778 ft 188 kts 123°
2026-05-07 18:04 40.53369 -74.31273 2748 ft 165 kts 123°
2026-05-07 18:05 40.52791 -74.30013 2747 ft 158 kts 108°
2026-05-07 18:05 40.52636 -74.28599 2781 ft 156 kts 81°
2026-05-07 18:05 40.53023 -74.27304 2791 ft 152 kts 46°
2026-05-07 18:05 40.53828 -74.26402 2800 ft 152 kts 31°
2026-05-07 18:06 40.54761 -74.25698 2808 ft 153 kts 25°
2026-05-07 18:06 40.55722 -74.25074 2710 ft 154 kts 23°
2026-05-07 18:06 40.56691 -74.24470 2490 ft 153 kts 23°
2026-05-07 18:06 40.57654 -74.23869 2284 ft 153 kts 24°
2026-05-07 18:07 40.58626 -74.23253 2090 ft 153 kts 24°
2026-05-07 18:07 40.59583 -74.22644 1882 ft 152 kts 24°
2026-05-07 18:07 40.60519 -74.22048 1679 ft 152 kts 24°
2026-05-07 18:07 40.61480 -74.21434 1465 ft 151 kts 24°
2026-05-07 18:08 40.62419 -74.20832 1288 ft 151 kts 24°
2026-05-07 18:08 40.63363 -74.20230 1068 ft 150 kts 24°
2026-05-07 18:08 40.64300 -74.19631 856 ft 150 kts 24°
2026-05-07 18:08 40.65239 -74.19030 644 ft 150 kts 22°
2026-05-07 18:09 40.66175 -74.18433 457 ft 150 kts 20°
2026-05-07 18:09 40.67121 -74.17827 240 ft 149 kts 21°
2026-05-07 18:09 40.68025 -74.17240 84 ft 145 kts 18°
2026-05-07 18:09 40.68901 -74.16705 29 ft 118 kts 23°
2026-05-07 18:10 40.69411 -74.16380 34 ft 38 kts 26°
2026-05-07 18:10 40.69545 -74.16374 29 ft 10 kts 322°
2026-05-07 18:10 40.69576 -74.16439 28 ft 9 kts 292°
2026-05-07 18:10 40.69607 -74.16529 29 ft 12 kts 296°
2026-05-07 18:11 40.69646 -74.16633 29 ft 10 kts 298°
2026-05-07 18:11 40.69670 -74.16695 28 ft 13 kts 298°
2026-05-07 18:11 40.69648 -74.16868 27 ft 17 kts 230°
2026-05-07 18:11 40.69538 -74.16943 28 ft 15 kts 207°
2026-05-07 18:12 40.69443 -74.17011 28 ft 17 kts 209°
2026-05-07 18:12 40.69320 -74.17094 26 ft 22 kts 206°
2026-05-07 18:12 40.69184 -74.17179 27 ft 12 kts 205°
2026-05-07 18:12 40.69124 -74.17216 30 ft 0 kts 206°
2026-05-07 18:13 40.69113 -74.17226 31 ft 3 kts 222°
2026-05-07 18:13 40.69105 -74.17266 27 ft 6 kts 273°
2026-05-07 18:13 40.69104 -74.17321 29 ft 0 kts 269°
2026-05-07 18:13 40.69106 -74.17333 30 ft 3 kts 293°
2026-05-07 18:14 40.69126 -74.17353 31 ft 4 kts 324°
2026-05-07 18:14 40.69131 -74.17358 26 ft 0 kts 324°